"TOA5","AWS1","CR1000","7964","CR1000.Std.14","CPU:AWS1_114.CR1","64363","TBL110"
"TIMESTAMP","RECORD","Wind_spd_WVc(1)","Wind_spd_WVc(2)","Air_Temp_Avg","Humidity_Avg","SW_upper_Wm2_Avg","Rain_Tot","Press_Avg","Issui_Tot","Depth_cm","SR50A_Raw","Quality","Ground_Temp_Avg(1)","Ground_Temp_Avg(2)","SW_lower_Wm2_Avg","Albedo_Avg","SWC_per(1)","SWC_per(2)","Period(1)","Period(2)"
"TS","RN","","","","","","","","","","","","","","","","","","",""
"","","WVc","WVc","Avg","Avg","Avg","Tot","Avg","Tot","Smp","Smp","Smp","Avg","Avg","Avg","Avg","Smp","Smp","Smp","Smp"
"2016-07-05 00:00:00",242845,0.608,335.4,18.61,76.47,0,0,870.2723,0,-19.53,3.265,189,19.27,18.95,1.106518,0,50.83,58.67,33.5,35.37
"2016-07-05 00:10:00",242846,0.632,351.4,18.7,75.46,0,0,870.3588,0,-33.54,3.401,207,19.23,18.95,1.360401,0,50.83,58.67,33.5,35.37
"2016-07-05 00:20:00",242847,0.692,310.4,18.56,76.2,0,0,870.3674,0,-29.87,3.367,213,19.19,18.92,1.227772,0,50.83,58.67,33.5,35.37
"2016-07-05 00:30:00",242848,0.442,293.4,18.32,77.9,0,0,870.3965,0,-24.96,3.321,187,19.23,18.89,0.9738786,0,50.83,58.67,33.5,35.37
"2016-07-05 00:40:00",242849,0.619,300.5,18.14,79.46,0,0,870.3808,0,25.65,2.831,388,19.26,18.91,1.000391,0,50.83,58.61,33.5,35.36
"2016-07-05 00:50:00",242850,0.572,331.5,18.34,78.28,0,0,870.3798,0,-23.61,3.306,172,19.26,18.9,1.322475,0,50.77,58.61,33.49,35.36
"2016-07-05 01:00:00",242851,0.585,279.7,18.37,78.17,0,0,870.3707,0,-39.52,3.462,232,19.26,18.92,1.133042,0,50.83,58.61,33.5,35.36
"2016-07-05 01:10:00",242852,0.31,344.6,18.27,78.76,0,0,870.3712,0,-0.434,3.083,346,19.18,18.92,0.9322183,0,50.83,58.61,33.5,35.36
"2016-07-05 01:20:00",242853,0.424,180.9,18.25,79.06,0,0,870.1709,0,-28.17,3.352,197,19.13,18.92,0.9018973,0,50.83,58.61,33.5,35.36
"2016-07-05 01:30:00",242854,0.685,177.6,18.18,79.24,0,0,870.0621,0,7.405,3.008,276,19.16,18.92,0.8753754,0,50.77,58.61,33.49,35.36
"2016-07-05 01:40:00",242855,0.574,194.6,18.1,79.97,0,0,869.8829,0,-24.5,3.317,190,19.18,18.92,0.6972681,0,50.77,58.61,33.49,35.36
"2016-07-05 01:50:00",242856,0.638,197.7,18.11,79.67,0,0,869.9409,0,318,0,0,19.18,18.92,0.9701008,0,50.77,58.61,33.49,35.36
"2016-07-05 02:00:00",242857,0.371,345.5,18.56,76.49,0,0,870.1398,0,6.531,3.014,316,19.13,18.92,1.250528,0,50.77,58.61,33.49,35.36
"2016-07-05 02:10:00",242858,0.477,9.4,18.7,75.23,0,0,870.1352,0,6.574,3.012,334,19.1,18.92,1.18233,0,50.77,58.61,33.49,35.36
"2016-07-05 02:20:00",242859,0.201,19.58,18.81,75.06,0,0,870.1494,0,6.645,3.014,308,19.09,18.92,1.144439,0,50.77,58.61,33.49,35.36
"2016-07-05 02:30:00",242860,0.131,106.2,17.87,83.7,0,0,870.1203,0,-25.02,3.325,194,19.06,18.92,0.1591606,0,50.77,58.61,33.49,35.36
"2016-07-05 02:40:00",242861,0,0,17.83,82.8,0,0,870.2094,0,-24.44,3.316,191,19.07,18.93,0.4319884,0,50.72,58.61,33.47,35.36
"2016-07-05 02:50:00",242862,0.052,182,17.45,93,0,0,870.1959,0,18.48,2.906,335,19.08,18.95,0.07199749,0,50.77,58.61,33.49,35.36
"2016-07-05 03:00:00",242863,0.006,150,17.05,97.9,0,0,870.3116,0,-23.68,3.314,190,19.07,18.93,0.02273656,0,50.77,58.56,33.49,35.35
"2016-07-05 03:10:00",242864,0.302,61.9,18.03,81.5,0.1768574,0,870.3838,0,7.465,3.007,313,19.02,18.88,1.727985,0.678,50.77,58.56,33.49,35.35
"2016-07-05 03:20:00",242865,0.12,40.5,18.1,82.1,0,0,870.3911,0,-25.12,3.323,193,19.01,18.83,1.981904,0,50.77,58.56,33.49,35.35
"2016-07-05 03:30:00",242866,0.216,69.91,17.86,83.8,0,0,870.3822,0,8.16,3.002,348,19.01,18.83,1.781076,0,50.77,58.56,33.49,35.35
"2016-07-05 03:40:00",242867,0.238,50.91,17.7,84.9,0,0,870.5279,0,-23.37,3.308,192,18.99,18.83,1.671186,0,50.72,58.56,33.47,35.35
"2016-07-05 03:50:00",242868,0.16,61.2,17.74,83.9,0,0,870.5984,0,318,0,0,18.94,18.84,1.84171,0,50.72,58.56,33.47,35.35
"2016-07-05 04:00:00",242869,0.268,45,18.05,80.8,0.02358116,0,870.5709,0,7.428,3.006,324,18.96,18.83,2.061458,1.109,50.72,58.56,33.47,35.35
"2016-07-05 04:10:00",242870,0.301,42.04,18.32,79.21,0.05895319,0,870.645,0,6.073,3.02,311,18.98,18.83,1.883373,2.33,50.72,58.56,33.47,35.35
"2016-07-05 04:20:00",242871,0.41,32.99,18.39,78.71,0,0,870.6281,0,5.211,3.027,278,19.01,18.84,1.659808,0,50.72,58.56,33.47,35.35
"2016-07-05 04:30:00",242872,0.461,45.39,18.36,78.72,0.02751156,0,870.6742,0,5.154,3.028,435,19.01,18.84,1.091372,0.932,50.72,58.56,33.47,35.35
"2016-07-05 04:40:00",242873,0.064,110.4,17.68,91,0.007860418,0,870.8793,0,8.2,3.005,328,18.95,18.83,0.178105,0.209,50.72,58.5,33.47,35.33
"2016-07-05 04:50:00",242874,0.266,166.9,17,99,0.8489215,0,870.8738,0,0.789,3.076,219,18.92,18.83,0.09473647,0.052,50.72,58.5,33.47,35.33
"2016-07-05 05:00:00",242875,0.242,76.01,17.75,85.7,2.700064,0,870.8995,0,5.298,3.03,281,18.92,18.82,1.159582,0.421,50.72,58.56,33.47,35.35
"2016-07-05 05:10:00",242876,0.025,129.3,17.48,90.8,2.326687,0,871.1374,0,5.246,3.033,296,18.92,18.79,0.1781053,0.077,50.66,58.5,33.46,35.33
"2016-07-05 05:20:00",242877,0.151,92.8,17.32,93.8,4.437222,0,871.1492,0,6.046,3.023,336,18.92,18.76,0.8564219,0.206,50.72,58.5,33.47,35.33
"2016-07-05 05:30:00",242878,0.116,29.21,17.85,85,4.401793,0,871.3827,0,-33.63,3.407,228,18.89,18.75,1.841665,0.433,50.66,58.5,33.46,35.33
"2016-07-05 05:40:00",242879,0.096,22.34,17.99,83.4,5.749912,0,871.4089,0,-33.69,3.405,460,18.89,18.75,1.549897,0.265,50.66,58.5,33.46,35.33
"2016-07-05 05:50:00",242880,0.247,41.23,18.42,78.88,10.67459,0,871.4016,0,6.186,3.018,344,18.91,18.76,2.762559,0.274,50.66,58.5,33.46,35.33
"2016-07-05 06:00:00",242881,0.274,52.59,18.29,80.5,27.48385,0,871.5479,0,5.26,3.027,390,18.91,18.76,4.725453,0.178,50.66,58.5,33.46,35.33
"2016-07-05 06:10:00",242882,0.091,297.7,18.43,80.8,27.74298,0,871.6956,0,5.71,3.024,490,18.92,18.75,4.316149,0.15,50.66,58.5,33.46,35.33
"2016-07-05 06:20:00",242883,0.325,169.4,17.83,87.5,18.96272,0,871.7804,0,-0.569,3.089,278,18.92,18.75,1.955307,0.094,50.72,58.5,33.47,35.33
"2016-07-05 06:30:00",242884,0.731,192.5,17.63,88.9,41.08402,0,871.7272,0,-35.33,3.424,239,18.91,18.7,5.668717,0.137,50.66,58.5,33.46,35.33
"2016-07-05 06:40:00",242885,0.45,192.2,17.76,87.9,41.1241,0,871.8596,0,-33.88,3.411,224,18.9,18.69,5.414941,0.131,50.66,58.5,33.46,35.33
"2016-07-05 06:50:00",242886,0.711,174,17.71,91.7,174.2525,0,871.632,0,1.947,3.06,214,18.9,18.69,29.8412,0.166,50.72,58.44,33.47,35.32
"2016-07-05 07:00:00",242887,0.851,185.6,18.44,83.2,176.5163,0,871.6639,0,6.045,3.019,400,18.91,18.66,26.97645,0.153,50.72,58.44,33.47,35.32
"2016-07-05 07:10:00",242888,0.896,190.6,18.51,83.2,92.45656,0,871.6423,0,5.542,3.023,346,18.9,18.65,24.36473,0.307,50.66,58.44,33.46,35.32
"2016-07-05 07:20:00",242889,0.966,207,18.94,81,67.59432,0,871.6537,0,1.788,3.058,288,18.9,18.64,33.59108,0.523,50.66,58.44,33.46,35.32
"2016-07-05 07:30:00",242890,0.698,155,19.08,80.3,144.6778,0,871.627,0,318,0,0,18.89,18.63,37.76136,0.289,50.61,58.44,33.45,35.32
"2016-07-05 07:40:00",242891,0.697,359.4,19.35,76.06,211.6062,0,871.6216,0,19.83,2.881,371,18.88,18.62,40.60571,0.198,50.66,58.44,33.46,35.32
"2016-07-05 07:50:00",242892,0.769,37.3,19.44,74.39,303.8398,0,871.6113,0,14.92,2.928,333,18.87,18.63,42.10303,0.141,50.66,58.44,33.46,35.32
"2016-07-05 08:00:00",242893,0.339,309.3,19.79,71.88,397.1219,0,871.6293,0,-23.73,3.297,187,18.8,18.62,53.76484,0.136,50.66,58.5,33.46,35.33
"2016-07-05 08:10:00",242894,0.369,274,20.58,70.82,497.3751,0,871.8333,0,-29.57,3.35,197,18.79,18.62,69.13488,0.138,50.66,58.44,33.46,35.32
"2016-07-05 08:20:00",242895,0.334,359,20.56,69.85,244.7832,0,871.8607,0,14.42,2.928,328,18.77,18.59,32.77452,0.133,50.61,58.5,33.45,35.33
"2016-07-05 08:30:00",242896,0.562,336.6,20.34,70.74,328.4728,0,871.8627,0,14.81,2.925,502,18.76,18.58,47.64236,0.144,50.61,58.44,33.45,35.32
"2016-07-05 08:40:00",242897,0.131,118,20.47,72.15,447.3299,0,871.8585,0,15.38,2.916,322,18.73,18.58,66.9238,0.148,50.61,58.38,33.45,35.31
"2016-07-05 08:50:00",242898,0.234,4.19,20.82,72.69,250.6556,0,871.8627,0,15.13,2.921,273,18.68,18.57,33.27609,0.132,50.55,58.38,33.43,35.31
"2016-07-05 09:00:00",242899,0.545,78.03,20.4,72.61,332.9234,0,871.8627,0,-24.79,3.306,235,18.7,18.57,47.92141,0.144,50.61,58.38,33.45,35.31
"2016-07-05 09:10:00",242900,0.286,174.3,20.56,74.88,454.8542,0,871.8564,0,-26.18,3.316,236,18.75,18.57,68.62418,0.148,50.61,58.44,33.45,35.32
"2016-07-05 09:20:00",242901,0.299,165.1,21.07,73.48,487.5469,0,871.8502,0,-26.59,3.32,312,18.81,18.57,71.13958,0.143,50.55,58.38,33.43,35.31
"2016-07-05 09:30:00",242902,0.263,194.9,21.37,72.79,711.3358,0,871.7911,0,2.96,3.029,200,18.77,18.57,109.6206,0.15,50.55,58.38,33.43,35.31
"2016-07-05 09:40:00",242903,0.482,356.8,22.24,69.57,648.7162,0,871.8627,0,0.087,3.06,211,18.86,18.54,92.38789,0.138,50.61,58.38,33.45,35.31
"2016-07-05 09:50:00",242904,0.404,291.8,21.92,66.99,746.9281,0,871.8627,0,4.994,3.011,313,18.88,18.57,111.2648,0.139,50.55,58.38,33.43,35.31
"2016-07-05 10:00:00",242905,0.412,285.6,22.41,65.92,990.6564,0,871.8607,0,5.618,3.001,249,18.84,18.55,149.0601,0.148,50.5,58.38,33.42,35.31
"2016-07-05 10:10:00",242906,0.95,8.39,22.71,63.33,907.0798,0,871.827,0,2.104,3.037,204,18.87,18.49,135.4793,0.148,50.55,58.38,33.43,35.31
"2016-07-05 10:20:00",242907,0.367,18.6,22.71,67.3,833.2156,0,871.6205,0,5.827,2.999,247,18.93,18.48,125.4215,0.149,50.5,58.38,33.42,35.31
"2016-07-05 10:30:00",242908,0.505,309.2,22.57,68.1,589.1926,0,871.6101,0,4.15,3.018,292,18.98,18.48,82.40964,0.137,50.5,58.38,33.42,35.31
"2016-07-05 10:40:00",242909,0.401,1.98,22.65,67.18,963.2637,0,871.6101,0,2.404,3.031,213,18.97,18.48,150.1322,0.154,50.5,58.38,33.42,35.31
"2016-07-05 10:50:00",242910,0.44,318.5,23.05,64.78,842.6373,0,871.6058,0,0.702,3.046,209,18.98,18.48,127.5012,0.146,50.5,58.32,33.42,35.29
"2016-07-05 11:00:00",242911,0.473,327.4,23.05,65.69,696.339,0,871.6205,0,-1.389,3.069,200,19.11,18.47,99.41131,0.141,50.44,58.32,33.41,35.29
"2016-07-05 11:10:00",242912,0.359,56.67,22.84,71.86,556.5785,0,871.6417,0,0.009,3.054,229,19.16,18.42,79.84878,0.142,50.44,58.32,33.41,35.29
"2016-07-05 11:20:00",242913,0.371,293.2,22.76,73.34,619.9916,0,871.8585,0,-1.252,3.067,210,19.23,18.42,90.61877,0.145,50.44,58.32,33.41,35.29
"2016-07-05 11:30:00",242914,0.329,335,22.82,70.33,566.6798,0,871.8627,0,-3.295,3.088,202,19.28,18.41,81.59895,0.143,50.39,58.32,33.39,35.29
"2016-07-05 11:40:00",242915,0.22,116.2,22.67,70.63,539.4404,0,871.8544,0,-0.187,3.057,254,19.34,18.41,78.15163,0.144,50.44,58.32,33.41,35.29
"2016-07-05 11:50:00",242916,0.317,25.2,23.06,68.75,577.6612,0,871.827,0,2.195,3.033,319,19.43,18.41,84.45529,0.146,50.39,58.26,33.39,35.28
"2016-07-05 12:00:00",242917,0.497,2.315,23.4,66.28,1071.718,0,871.7806,0,-0.019,3.048,253,19.5,18.44,172.6799,0.159,50.39,58.26,33.39,35.28
"2016-07-05 12:10:00",242918,0.616,314.2,24.31,60.78,1069.267,0,871.6732,0,0.548,3.043,268,19.59,18.44,167.5241,0.154,50.39,58.26,33.39,35.28
"2016-07-05 12:20:00",242919,0.255,255.3,24.05,61.85,642.9642,0,871.6375,0,-3.274,3.081,198,19.64,18.46,92.22121,0.14,50.33,58.26,33.38,35.28
"2016-07-05 12:30:00",242920,0.403,339.5,23.6,61.25,623.1859,0,871.6101,0,-0.145,3.051,213,19.69,18.43,91.91057,0.146,50.33,58.26,33.38,35.28
"2016-07-05 12:40:00",242921,0.521,8.77,24.42,59.89,1162.064,0,871.4501,0,-0.972,3.054,237,19.81,18.44,187.7041,0.161,50.33,58.21,33.38,35.26
"2016-07-05 12:50:00",242922,0.529,13.92,24.82,57.23,1108.47,0,871.3574,0,-1.226,3.058,224,19.87,18.44,173.43,0.155,50.28,58.21,33.37,35.26
"2016-07-05 13:00:00",242923,0.457,26.12,24.55,56.77,881.8403,0,871.3489,0,-1.401,3.059,214,19.98,18.45,131.047,0.147,50.28,58.21,33.37,35.26
"2016-07-05 13:10:00",242924,0.393,260,24.94,58.3,985.7216,0,871.2037,0,-0.485,3.048,279,20.02,18.43,151.9392,0.151,50.22,58.21,33.35,35.26
"2016-07-05 13:20:00",242925,0.422,60.93,24.35,57.75,468.2283,0,871.1469,0,-2.383,3.072,206,20.11,18.43,61.16133,0.126,50.28,58.21,33.37,35.26
"2016-07-05 13:30:00",242926,0.289,245.7,24.22,62.46,653.1874,0,871.21,0,0.839,3.04,227,20.21,18.44,95.88445,0.14,50.22,58.15,33.35,35.25
"2016-07-05 13:40:00",242927,0.198,270.4,23.65,61.95,325.3718,0,871.1826,0,-1.626,3.067,252,20.33,18.45,41.57607,0.126,50.22,58.09,33.35,35.24
"2016-07-05 13:50:00",242928,0.201,224.6,23.59,61.59,371.3601,0,871.1111,0,-3.18,3.081,212,20.4,18.45,51.15277,0.131,50.22,58.21,33.35,35.26
"2016-07-05 14:00:00",242929,0.484,0.569,23.94,59.19,498.6737,0,871.1006,0,-4.085,3.089,192,20.52,18.49,74.15882,0.148,50.17,58.09,33.34,35.24
"2016-07-05 14:10:00",242930,0.24,62.78,23.85,60.47,368.0558,0,870.8879,0,-2.487,3.073,209,20.59,18.5,51.42173,0.14,50.17,58.03,33.34,35.22
"2016-07-05 14:20:00",242931,0.206,319.1,23.95,62.62,484.2526,0,870.8627,0,-1.586,3.063,208,20.67,18.49,71.38613,0.147,50.11,58.03,33.33,35.22
"2016-07-05 14:30:00",242932,0.269,337.8,24.08,61.86,494.4776,0,870.8522,0,-0.8,3.055,219,20.73,18.49,71.83456,0.145,50.11,58.03,33.33,35.22
"2016-07-05 14:40:00",242933,0.552,345.3,24.32,60.33,730.3868,0,870.8522,0,-2.712,3.072,242,20.82,18.5,110.7589,0.151,50.11,58.03,33.33,35.22
"2016-07-05 14:50:00",242934,0.402,59.34,24.5,59.37,566.5892,0,870.8479,0,-2.281,3.069,205,20.86,18.52,78.36429,0.137,50.11,57.97,33.33,35.21
"2016-07-05 15:00:00",242935,0.248,324.9,24.19,63.17,390.0194,0,870.6942,0,-3.483,3.083,197,20.92,18.57,49.48982,0.126,50.11,57.97,33.33,35.21
"2016-07-05 15:10:00",242936,0.208,21.93,23.79,65.73,291.2176,0,870.5995,0,-3.596,3.085,198,20.97,18.58,36.45436,0.125,50.06,58.03,33.31,35.22
"2016-07-05 15:20:00",242937,0.461,10.69,23.49,64.91,215.578,0,870.5995,0,-1.616,3.068,227,21.04,18.6,26.41555,0.122,50.06,58.03,33.31,35.22
"2016-07-05 15:30:00",242938,0.096,353,23.06,70.56,159.1141,0,870.7237,0,-1.279,3.067,224,21.06,18.61,17.4074,0.106,50.01,57.97,33.3,35.21
"2016-07-05 15:40:00",242939,0.349,32.72,22.47,74.59,65.53783,0,870.6584,0,-2.983,3.089,206,21.1,18.62,5.163631,0.083,50.06,57.97,33.31,35.21
"2016-07-05 15:50:00",242940,0.792,6.649,20.75,88.6,110.5094,3.5,870.7679,0,-2.53,3.094,202,21.22,18.67,14.26377,0.125,50.06,57.97,33.31,35.21
"2016-07-05 16:00:00",242941,0.282,151.9,19.99,100,227.7292,0.5,871.1174,0,-0.44,3.074,210,21.27,18.71,30.17976,0.133,50.22,57.97,33.35,35.21
"2016-07-05 16:10:00",242942,0.298,138.5,19.68,100,146.8122,0,871.1638,0,0.354,3.069,217,21.36,18.72,19.44002,0.132,50.39,57.97,33.39,35.21
"2016-07-05 16:20:00",242943,0.909,257.3,19.69,100,93.9031,0,871.2774,0,-1.611,3.087,199,21.39,18.79,14.07591,0.147,50.5,58.03,33.42,35.22
"2016-07-05 16:30:00",242944,0.773,216.4,19.78,97.4,91.73699,0,871.3763,0,-1.924,3.09,194,21.39,18.81,13.42087,0.146,50.5,58.03,33.42,35.22
"2016-07-05 16:40:00",242945,0.379,162.5,19.66,100,35.20375,0,871.3574,0,-2.082,3.091,198,21.5,18.82,5.410897,0.16,50.55,58.03,33.43,35.22
"2016-07-05 16:50:00",242946,0.489,269.1,19.68,98.6,40.37285,1.5,871.5897,0,7.455,3,320,21.52,18.87,6.297754,0.162,50.55,58.09,33.43,35.24
"2016-07-05 17:00:00",242947,0.787,353.9,19.23,98.5,87.95527,2.5,871.6414,0,-32.48,3.388,311,21.53,18.85,12.61474,0.143,51.1,58.15,33.57,35.25
"2016-07-05 17:10:00",242948,0.258,181.8,18.97,100,81.02483,0,871.5403,0,-33.36,3.397,202,21.61,18.92,11.56541,0.143,51.44,58.32,33.65,35.29
"2016-07-05 17:20:00",242949,0.163,161.3,19.1,100,69.42232,0,871.58,0,-34.11,3.404,214,21.62,18.94,10.65964,0.154,51.49,58.5,33.66,35.33
"2016-07-05 17:30:00",242950,0.15,128,19.16,100,129.7595,0,871.636,0,-33.54,3.398,197,21.62,18.97,19.12919,0.147,51.44,58.61,33.65,35.36
"2016-07-05 17:40:00",242951,0.309,128.5,19.2,100,77.40922,0,871.6492,0,6.885,3.007,336,21.62,19.01,10.99323,0.142,51.38,58.79,33.64,35.4
"2016-07-05 17:50:00",242952,0.036,107.4,19.17,100,31.07643,0,871.6718,0,-35.87,3.421,205,21.63,19.04,4.630772,0.15,51.33,58.91,33.62,35.43
"2016-07-05 18:00:00",242953,0.017,155.1,18.98,100,40.43807,0,871.7896,0,-32.61,3.39,200,21.66,19.12,5.71833,0.143,51.33,59.03,33.62,35.45
"2016-07-05 18:10:00",242954,0.154,118.4,18.76,100,27.28768,0,871.887,0,-35.14,3.417,206,21.61,19.12,3.846345,0.141,51.33,59.03,33.62,35.45
"2016-07-05 18:20:00",242955,0.013,124.1,18.65,100,25.28734,0,871.8764,0,-33.03,3.395,201,21.54,19.1,3.907002,0.155,51.27,59.03,33.61,35.45
"2016-07-05 18:30:00",242956,0,0,18.69,100,15.11978,0,871.9293,0,-32.97,3.396,198,21.54,19.2,2.690571,0.18,51.27,59.08,33.61,35.47
"2016-07-05 18:40:00",242957,0.121,152.8,18.45,100,12.61228,0,872.1339,0,-34.11,3.408,201,21.54,19.24,2.379832,0.189,51.27,59.08,33.61,35.47
"2016-07-05 18:50:00",242958,0.075,172.7,18.45,100,10.12048,0,872.1532,0,-33.49,3.402,224,21.57,19.19,2.209302,0.221,51.21,59.08,33.6,35.47
"2016-07-05 19:00:00",242959,0.171,146.6,18.39,100,4.43336,0,872.2122,0,-34.93,3.417,240,21.48,19.19,1.417288,0.339,51.21,59.08,33.6,35.47
"2016-07-05 19:10:00",242960,0.222,94.5,18.28,100,0.7939173,0,872.4197,0,-33.69,3.405,230,21.45,19.24,0.9625434,1.741,51.16,59.08,33.58,35.47
"2016-07-05 19:20:00",242961,0.041,102.7,18.35,100,0.3262135,0,872.4406,0,-33.23,3.4,266,21.45,19.28,0.8147513,1.454,51.16,59.08,33.58,35.47
"2016-07-05 19:30:00",242962,0.115,128.5,18.47,100,0,0,872.4203,0,-35.84,3.424,241,21.47,19.26,0.8867525,0,51.16,59.03,33.58,35.45
"2016-07-05 19:40:00",242963,0.276,76.49,18.69,100,0.09039652,0,872.4319,0,-35.51,3.42,229,21.45,19.28,0.8033827,1.253,51.1,59.03,33.57,35.45
"2016-07-05 19:50:00",242964,0.165,60.27,18.78,100,0.05502397,0,872.4564,0,-35.82,3.422,226,21.37,19.28,0.7086442,0.723,51.1,59.03,33.57,35.45
"2016-07-05 20:00:00",242965,0.074,47.38,18.79,100,0,0,872.4893,0,-36,3.424,224,21.37,19.35,0.6821174,0,51.05,59.08,33.56,35.47
"2016-07-05 20:10:00",242966,0.258,113.6,18.82,100,0,0,872.6585,0,-0.879,3.085,222,21.32,19.39,0.5570625,0,51.1,59.03,33.57,35.45
"2016-07-05 20:20:00",242967,0.531,131.2,18.7,100,0,0,872.653,0,-1.029,3.086,206,21.34,19.4,0.4471658,0,51.05,58.97,33.56,35.44
"2016-07-05 20:30:00",242968,0.13,110.3,18.72,100,0,0,872.6483,0,-33.85,3.404,204,21.28,19.38,0.4699031,0,51.05,59.03,33.56,35.45
"2016-07-05 20:40:00",242969,0.338,149.8,18.68,100,0,0,872.7004,0,-1.547,3.091,216,21.28,19.37,0.4547449,0,51.05,58.97,33.56,35.44
"2016-07-05 20:50:00",242970,0.31,129.8,18.64,100,0,0,872.6842,0,-32.79,3.395,267,21.27,19.38,0.4699031,0,51.05,58.97,33.56,35.44
"2016-07-05 21:00:00",242971,0.073,115,18.51,100,0,0,872.6534,0,0.869,3.069,258,21.22,19.43,0.4585344,0,50.99,58.97,33.54,35.44
"2016-07-05 21:10:00",242972,0.012,140.1,18.52,100,0,0,872.6746,0,-33.44,3.401,203,21.19,19.45,0.6783278,0,50.99,58.91,33.54,35.43
"2016-07-05 21:20:00",242973,0.098,79.8,18.56,100,0,0,872.8477,0,1.855,3.059,296,21.22,19.47,0.7541187,0,50.94,58.91,33.53,35.43
"2016-07-05 21:30:00",242974,0.41,106.2,18.51,100,0,0,872.7237,0,-34.73,3.414,222,21.22,19.52,0.5305349,0,50.94,58.91,33.53,35.43
"2016-07-05 21:40:00",242975,0.031,126.3,18.45,100,0,0,872.6681,0,-34.88,3.415,210,21.12,19.51,0.5077921,0,50.99,58.91,33.54,35.43
"2016-07-05 21:50:00",242976,0.322,118.1,18.53,100,0,0,872.6207,0,-34.47,3.411,219,21.1,19.49,0.5911633,0,50.94,58.91,33.53,35.43
"2016-07-05 22:00:00",242977,0.135,131.8,18.43,100,0,0,872.4318,0,-35.04,3.417,220,21.09,19.48,0.4547379,0,50.94,58.85,33.53,35.41
"2016-07-05 22:10:00",242978,0.063,91.3,18.49,100,0,0,872.6085,0,-33.67,3.403,202,21.05,19.47,0.6063214,0,50.94,58.85,33.53,35.41
"2016-07-05 22:20:00",242979,0.267,82,18.54,100,0,0,872.656,0,-33.44,3.401,199,21.02,19.45,0.5229549,0,50.94,58.85,33.53,35.41
"2016-07-05 22:30:00",242980,0.432,84.8,18.51,100,0,0,872.6382,0,-35.4,3.42,242,21.02,19.49,0.4585341,0,50.94,58.79,33.53,35.4
"2016-07-05 22:40:00",242981,0.482,100.8,18.51,100,0,0,872.616,0,-33.85,3.405,224,21.01,19.52,0.4433729,0,50.88,58.79,33.52,35.4
"2016-07-05 22:50:00",242982,0.562,108.7,18.47,100,0,0,872.5958,0,-35.27,3.419,242,21,19.53,0.2993703,0,50.88,58.79,33.52,35.4
"2016-07-05 23:00:00",242983,0.654,100.5,18.37,100,0,0,872.7224,0,-34.83,3.416,204,20.94,19.54,0.2273714,0,50.88,58.79,33.52,35.4
"2016-07-05 23:10:00",242984,0.813,116.6,18.28,100,0,0,872.8621,0,-34.67,3.414,305,20.94,19.54,0.2273722,0,50.88,58.73,33.52,35.39
"2016-07-05 23:20:00",242985,0.711,140.1,18.22,100,0,0,872.8143,0,-35.6,3.424,318,21,19.56,0.2311619,0,50.83,58.73,33.5,35.39
"2016-07-05 23:30:00",242986,0.482,145.3,18.17,100,0,0,872.7917,0,-33.74,3.406,269,20.98,19.6,0.2349515,0,50.88,58.73,33.52,35.39
"2016-07-05 23:40:00",242987,0.405,119,18.16,100,0,0,872.7265,0,-34.85,3.417,266,20.85,19.61,0.322111,0,50.83,58.67,33.5,35.37
"2016-07-05 23:50:00",242988,0.257,98,18.17,100,0,0,872.6448,0,-33.95,3.408,242,20.85,19.62,0.4320077,0,50.83,58.67,33.5,35.37
